Location: Newark
(48.3831°N, 4.1956°E)
Time: 06:42:20
(UTC+00:00)

Envisat - Pass Details

Date: 18 November 2019
Orbit: 764 x 766 km, 98.1° (Epoch: 05 December)

Event Time Altitude Azimuth Distance (km) Brightness Sun altitude
Rises 17:53:01 0° 174° (S) 3,220 6.3 -18.3°
Reaches altitude 10° 17:55:21 10° 178° (S) 2,298 5.5 -18.7°
Maximum altitude 18:00:21 61° 259° (W) 867 3.5 -19.5°
Drops below altitude 10° 18:05:24 10° 340° (NNW) 2,314 5.6 -20.3°
Sets 18:07:46 0° 344° (NNW) 3,244 6.4 -20.7°
